Date,TemperatureHighF,TemperatureAvgF,TemperatureLowF,DewpointHighF,DewpointAvgF,DewpointLowF,HumidityHigh,HumidityAvg,HumidityLow,PressureMaxIn,PressureMinIn,WindSpeedMaxMPH,WindSpeedAvgMPH,GustSpeedMaxMPH,PrecipitationSumIn
2013-1-1,15.0,9.3,3.6,6.9,3.5,-0.1,95,77,65,30.22,30.11,14,5,15,0.00
2013-1-2,25.7,20.0,6.9,21.0,13.5,1.8,92,76,57,30.16,30.03,16,5,16,0.00
2013-1-3,25.6,22.4,13.6,21.3,18.4,9.7,88,84,80,30.20,30.02,24,8,24,0.00
2013-1-4,29.4,21.2,11.3,21.8,15.4,7.0,87,79,69,30.17,30.04,28,10,29,0.00
2013-1-5,34.8,27.8,15.1,33.3,24.8,12.7,96,88,77,30.19,29.83,23,7,23,0.07
2013-1-6,34.6,26.5,16.6,32.2,22.4,14.4,91,84,76,30.26,29.83,24,9,25,0.00
2013-1-7,38.0,26.4,14.8,27.9,20.7,12.4,92,80,62,30.25,30.01,32,10,32,0.00
2013-1-8,40.3,33.6,24.0,31.7,28.4,21.9,93,81,70,30.08,29.90,24,6,24,0.00
2013-1-9,40.7,35.7,27.4,32.5,27.8,22.4,89,73,55,30.42,29.88,33,10,33,0.00
2013-1-10,40.7,31.9,20.1,36.0,28.5,18.1,96,87,74,30.45,29.85,18,4,20,0.47
2013-1-11,52.2,44.2,37.1,48.1,42.9,36.0,98,95,84,29.85,29.56,30,8,30,0.09
2013-1-12,52.1,38.4,25.4,47.6,32.5,20.3,88,79,69,29.94,29.57,29,12,29,0.00
2013-1-13,25.4,19.2,13.4,22.4,13.9,6.6,90,79,72,30.18,29.83,22,9,22,0.00
2013-1-14,24.2,16.1,9.1,11.5,8.5,5.3,85,72,50,30.42,30.18,19,5,19,0.00
2013-1-15,30.2,20.5,12.1,17.6,13.5,9.0,89,75,51,30.40,30.06,17,5,17,0.00
2013-1-16,33.9,26.6,16.6,30.0,20.2,10.3,86,77,58,30.06,29.73,31,10,31,0.00
2013-1-17,30.1,20.9,13.7,18.8,9.3,3.2,81,61,46,30.36,30.01,23,7,23,0.00
2013-1-18,41.1,29.6,12.5,32.4,22.9,8.1,89,76,65,30.39,29.78,38,12,40,0.00
2013-1-19,44.1,40.2,37.2,35.6,33.1,19.8,83,76,46,29.82,29.60,37,12,40,0.00
2013-1-20,19.2,11.6,7.7,7.9,0.7,-1.3,69,61,49,30.25,29.85,23,10,38,0.00
2013-1-21,11.0,3.9,-2.3,5.5,-5.4,-10.6,83,65,53,30.26,30.10,30,11,30,0.00
2013-1-22,7.0,0.9,-6.1,-3.1,-7.9,-13.3,74,66,57,30.36,30.26,22,8,22,0.00
2013-1-23,17.5,11.5,2.0,13.7,4.7,-4.2,88,74,62,30.36,30.06,31,8,36,0.00
2013-1-24,19.0,10.8,0.6,10.2,1.4,-5.4,76,66,51,30.63,30.34,25,5,25,0.00
2013-1-25,25.7,20.0,16.4,18.4,13.2,5.4,88,75,55,30.34,29.91,21,8,22,0.00
2013-1-26,27.2,18.3,8.6,14.6,9.3,4.5,83,69,47,30.36,30.15,18,5,18,0.00
2013-1-27,33.9,27.7,23.0,32.9,23.1,14.4,96,83,68,30.33,29.83,21,7,21,0.00
2013-1-28,42.7,37.7,33.4,39.9,35.4,30.8,97,91,76,29.90,29.73,18,5,18,0.24
2013-1-29,59.0,45.9,36.2,57.3,44.7,34.9,100,96,90,29.77,29.37,24,6,24,0.79
2013-1-30,37.2,28.7,16.1,36.1,27.0,12.4,97,93,84,29.54,29.19,32,13,32,0.12
2013-1-31,16.5,11.3,3.1,12.5,5.4,-2.7,85,76,67,30.11,29.54,29,13,29,0.00
2013-2-1,8.3,2.3,-3.4,5.4,-3.2,-7.8,92,77,68,30.30,30.11,23,9,23,0.00
2013-2-2,12.1,8.7,2.0,9.1,4.1,-2.0,91,81,68,30.14,30.01,15,5,16,0.00
2013-2-3,19.3,12.7,2.9,12.7,7.6,-1.1,89,80,66,30.03,29.92,27,6,27,0.00
2013-2-4,19.5,14.7,7.1,15.1,10.6,2.8,91,84,70,30.00,29.89,19,5,19,0.00
2013-2-5,27.6,18.4,3.1,25.3,14.9,0.1,98,86,76,30.07,29.76,21,6,21,0.00
2013-2-6,33.7,22.7,4.5,30.0,17.6,1.9,100,81,69,30.20,30.05,16,3,16,0.09
2013-2-7,34.1,31.8,22.5,32.1,30.0,21.2,97,93,85,30.08,29.84,21,4,21,0.09
2013-2-8,23.5,20.1,11.7,21.3,17.8,9.4,95,91,85,30.37,29.97,21,6,22,0.00
2013-2-9,28.7,18.8,4.9,25.4,16.5,2.4,95,90,85,30.37,30.06,20,3,21,0.00
2013-2-10,44.5,34.1,20.8,42.4,32.6,19.4,97,94,76,30.06,29.38,26,7,30,0.28
2013-2-11,41.4,31.5,26.4,34.4,26.2,20.6,88,81,75,29.93,29.38,39,16,39,0.00
2013-2-12,27.4,23.5,20.2,21.2,18.8,16.6,92,82,73,30.04,29.84,21,7,21,0.00
2013-2-13,38.7,29.5,17.7,30.3,25.3,16.0,94,85,69,29.84,29.66,17,5,17,0.00
2013-2-14,36.0,33.5,28.5,33.3,28.7,21.3,96,82,70,29.92,29.53,32,8,32,0.01
2013-2-15,28.9,21.3,13.8,25.2,12.1,5.8,88,68,49,30.15,29.92,28,8,28,0.00
2013-2-16,16.4,11.5,5.8,5.8,2.7,0.0,80,67,50,30.17,30.10,21,7,21,0.00
2013-2-17,25.5,15.5,0.4,14.6,5.6,-3.6,85,66,45,30.19,29.96,13,3,13,0.00
2013-2-18,47.2,35.8,25.0,42.0,29.5,14.6,95,78,64,29.95,29.37,29,8,29,0.52
2013-2-19,29.6,14.3,8.2,28.1,10.1,1.2,95,83,72,30.14,29.45,35,15,36,0.00
2013-2-20,20.3,12.5,5.7,11.4,6.1,-0.0,87,75,67,30.36,30.13,22,8,22,0.00
2013-2-21,26.6,20.3,11.0,23.9,16.7,7.6,91,85,78,30.40,30.03,30,8,30,0.00
2013-2-22,30.7,27.5,24.5,28.6,25.8,22.6,95,93,87,30.03,29.74,21,7,21,0.02
2013-2-23,28.0,25.1,21.4,24.9,20.3,16.9,91,82,71,29.90,29.80,19,8,21,0.00
2013-2-24,36.4,26.2,15.5,25.0,19.8,12.6,90,77,60,30.11,29.90,11,4,11,0.03
2013-2-25,41.5,27.8,13.8,27.9,21.7,11.7,92,79,57,30.14,29.99,11,2,11,0.00
2013-2-26,34.2,32.2,29.8,31.2,28.6,25.7,97,87,73,29.99,29.54,40,16,40,0.00
2013-2-27,32.9,31.3,29.1,31.9,30.4,28.1,97,97,96,29.69,29.51,22,7,22,0.09
2013-2-28,33.3,30.4,24.7,31.0,27.3,20.3,96,88,81,30.07,29.69,26,10,27,0.00
2013-3-1,24.8,23.9,22.4,21.7,19.6,16.9,92,84,78,30.19,30.04,25,10,25,0.00
2013-3-2,25.0,19.4,9.0,16.9,13.3,6.4,89,77,68,30.19,30.13,21,6,21,0.00
2013-3-3,29.4,17.1,3.4,17.6,7.4,0.6,90,68,38,30.14,30.06,14,2,14,0.00
2013-3-4,31.7,21.9,6.2,24.2,16.1,2.5,92,78,66,30.11,30.01,19,5,19,0.00
2013-3-5,31.6,28.8,25.6,28.1,26.1,24.2,96,90,77,30.01,29.82,26,9,27,0.00
2013-3-6,32.6,29.2,25.8,26.9,25.5,23.8,93,86,79,30.26,30.00,24,9,24,0.02
2013-3-7,35.6,28.1,15.9,24.0,20.8,13.6,100,75,56,30.39,30.25,15,3,15,0.00
2013-3-8,39.7,27.1,11.7,29.9,22.4,9.6,100,83,63,30.44,30.26,16,3,16,0.00
2013-3-9,40.9,35.0,28.5,33.6,30.1,23.5,91,82,71,30.26,29.77,20,4,20,0.09
2013-3-10,44.2,39.8,36.0,43.4,38.8,33.3,98,96,90,29.78,29.56,29,4,29,0.52
2013-3-11,39.6,34.4,31.0,39.1,33.4,27.6,98,96,87,29.69,29.47,21,6,21,0.05
2013-3-12,32.5,28.8,25.1,28.2,24.7,19.3,100,85,66,29.94,29.69,25,9,26,0.00
2013-3-13,30.6,23.8,19.3,21.0,14.1,8.0,85,68,39,30.25,29.94,27,12,28,0.00
2013-3-14,35.2,28.6,17.9,28.2,21.4,10.2,92,75,53,30.27,30.03,18,5,18,0.00
2013-3-15,37.1,31.9,28.7,33.8,29.4,26.5,94,91,83,30.03,29.75,24,5,24,0.07
2013-3-16,31.5,28.3,24.5,28.4,23.4,19.3,93,82,66,30.09,29.74,29,9,29,0.00
2013-3-17,30.1,25.9,19.5,23.9,17.7,11.3,81,71,61,30.21,29.98,20,8,21,0.00
2013-3-18,33.2,28.6,18.9,31.7,25.1,12.7,100,87,74,29.98,29.53,32,8,32,0.13
2013-3-19,28.7,20.3,12.8,14.0,11.0,7.2,82,68,51,30.00,29.67,39,14,39,0.00
2013-3-20,20.1,15.5,10.7,10.5,5.2,0.5,68,63,56,30.03,29.98,28,12,28,0.00
2013-3-21,27.8,19.5,10.1,15.1,9.6,3.2,74,65,55,30.03,29.98,20,7,20,0.00
2013-3-22,34.4,24.5,14.9,18.6,13.9,9.0,80,65,41,30.05,29.98,15,3,15,0.00
2013-3-23,40.4,28.8,17.6,26.3,20.6,14.4,89,73,46,30.11,30.01,16,3,16,0.00
2013-3-24,34.3,31.5,29.6,29.0,25.9,22.6,87,79,74,30.02,29.69,33,12,33,0.00
2013-3-25,34.1,30.8,27.2,27.0,24.9,22.0,88,79,68,30.04,29.72,30,11,30,0.00
2013-3-26,39.9,34.6,30.3,29.3,26.2,24.0,80,71,63,30.19,30.04,20,7,20,0.00
2013-3-27,40.2,35.6,30.1,25.9,22.8,19.3,73,60,44,30.26,30.19,18,7,19,0.00
2013-3-28,46.0,36.2,28.0,25.0,21.7,19.4,74,57,38,30.29,30.24,14,4,15,0.00
2013-3-29,50.4,37.4,24.0,30.7,22.8,19.2,88,59,31,30.27,30.19,14,2,15,0.00
2013-3-30,55.4,42.8,27.7,41.8,31.9,21.8,82,66,49,30.19,29.75,26,6,27,0.00
2013-3-31,51.2,41.5,32.9,41.8,35.1,21.3,93,79,55,29.83,29.63,33,11,33,0.00
2013-4-1,35.2,30.5,26.6,22.0,16.0,11.5,82,55,39,30.14,29.83,35,9,35,0.00
2013-4-2,39.4,31.3,23.5,18.1,14.5,10.9,74,51,32,30.27,30.14,25,8,25,0.00
2013-4-3,44.4,33.5,21.9,21.1,15.9,8.5,81,51,25,30.41,30.25,16,5,18,0.00
2013-4-4,56.4,42.6,28.1,35.9,25.5,13.4,66,51,38,30.25,29.90,27,8,28,0.00
2013-4-5,45.4,37.8,30.6,30.7,26.3,21.0,86,64,48,30.19,29.96,19,6,22,0.00
2013-4-6,63.5,48.1,34.2,49.8,35.7,23.1,90,64,42,30.12,29.48,32,10,35,0.16
2013-4-7,53.9,44.0,35.4,49.8,36.4,31.5,91,75,53,29.92,29.49,29,8,33,0.00
2013-4-8,53.1,42.5,35.2,47.4,39.3,31.1,96,88,79,29.94,29.51,25,6,25,0.50
2013-4-9,40.3,38.4,37.0,39.5,37.4,35.5,97,96,94,29.98,29.81,36,11,36,1.51
2013-4-10,38.0,36.4,33.9,36.8,35.1,32.4,96,95,94,30.06,29.80,36,15,40,0.68
2013-4-11,37.7,37.0,35.2,36.7,35.9,33.7,97,96,94,29.88,29.52,28,12,29,0.50
2013-4-12,42.0,37.5,35.0,38.7,35.0,29.7,98,91,80,29.75,29.47,22,7,24,0.08
2013-4-13,38.4,35.5,31.6,30.1,28.3,24.5,86,75,60,29.95,29.74,24,8,25,0.01
2013-4-14,53.0,38.7,31.2,47.7,34.9,27.0,95,86,77,29.97,29.57,24,7,26,0.09
2013-4-15,62.9,52.2,40.9,52.4,46.5,36.5,96,82,48,29.91,29.56,33,10,39,0.63
2013-4-16,54.4,42.4,35.0,39.2,34.6,31.9,94,75,46,30.24,29.89,18,6,21,0.00
2013-4-17,43.1,40.9,38.9,41.7,36.7,31.3,96,85,67,30.26,29.80,35,9,35,0.77
2013-4-18,57.6,47.1,39.4,57.1,45.9,34.6,99,96,82,29.80,29.30,37,6,38,1.42
2013-4-19,39.7,36.1,29.5,35.1,29.0,24.3,92,75,61,29.85,29.33,35,15,35,0.01
2013-4-20,43.7,34.1,26.5,25.4,19.9,15.1,78,58,33,30.38,29.85,25,8,25,0.00
2013-4-21,49.1,40.0,28.9,32.5,26.5,21.5,86,60,42,30.48,30.24,25,7,25,0.00
2013-4-22,67.0,52.9,40.7,41.3,34.9,30.9,71,52,31,30.25,29.96,22,6,22,0.00
2013-4-23,53.6,44.2,37.0,49.0,39.9,33.1,94,85,60,29.96,29.82,24,6,24,0.41
2013-4-24,51.6,42.1,34.3,33.1,27.6,21.6,83,59,31,30.00,29.88,26,8,26,0.00
2013-4-25,50.9,44.1,38.8,36.2,31.7,26.5,84,63,40,30.25,29.93,26,8,28,0.00
2013-4-26,66.5,52.7,35.8,47.0,38.6,28.3,80,60,44,30.25,30.11,34,10,34,0.00
2013-4-27,67.7,57.0,45.7,48.5,44.5,41.6,91,65,40,30.19,29.94,19,5,20,0.00
2013-4-28,69.8,57.5,49.1,51.9,46.4,41.3,89,68,46,29.94,29.73,14,2,14,0.00
2013-4-29,70.3,60.4,47.1,56.5,52.1,45.7,97,76,52,29.81,29.67,20,6,20,0.04
2013-4-30,85.2,72.3,61.8,60.9,56.5,49.8,85,61,30,29.82,29.64,34,13,35,0.00
2013-5-1,84.1,71.9,50.6,58.7,53.8,42.1,78,55,27,30.10,29.82,29,8,29,0.00
2013-5-2,57.7,47.3,39.2,48.6,41.1,35.9,94,80,59,30.18,30.10,31,11,31,0.58
2013-5-3,48.1,42.8,38.0,46.7,41.3,36.6,96,94,89,30.12,29.93,23,10,23,0.48
2013-5-4,70.3,56.7,45.5,50.2,46.5,42.5,93,71,46,29.99,29.92,23,8,23,0.00
2013-5-5,70.7,58.3,45.4,47.4,43.4,38.5,89,61,36,29.99,29.93,23,6,23,0.00
2013-5-6,74.9,61.4,48.2,46.3,38.9,28.5,71,47,21,30.00,29.91,18,4,18,0.00
2013-5-7,76.3,63.5,47.6,49.0,42.1,36.4,80,49,26,29.99,29.91,16,3,16,0.00
2013-5-8,80.5,64.8,45.9,51.3,44.9,41.0,87,53,26,29.97,29.88,17,2,17,0.00
2013-5-9,69.5,57.1,43.6,59.4,50.5,42.3,96,80,57,29.88,29.80,30,6,30,0.25
2013-5-10,48.7,44.7,41.0,44.7,42.5,39.1,96,92,85,29.92,29.76,31,10,31,0.67
2013-5-11,51.9,45.5,37.5,49.2,36.5,23.8,98,74,35,29.96,29.73,36,10,37,0.04
2013-5-12,52.4,44.0,36.9,32.4,27.3,22.9,76,53,33,30.05,29.96,27,10,28,0.00
2013-5-13,62.5,46.7,33.1,37.6,31.6,22.6,94,60,26,30.13,29.91,18,4,18,0.00
2013-5-14,85.8,67.2,47.2,60.9,49.2,34.1,70,54,31,29.91,29.49,21,7,22,0.01
2013-5-15,78.2,72.1,57.5,60.9,48.5,38.5,67,45,25,29.76,29.49,22,7,23,0.00
2013-5-16,82.0,67.3,55.6,51.7,44.2,35.1,71,44,29,29.90,29.74,19,7,19,0.00
2013-5-17,57.3,55.7,54.2,42.5,39.7,35.8,64,55,48,29.94,29.89,11,4,11,0.00
2013-5-18,78.3,64.5,50.9,61.5,54.2,46.2,86,70,54,30.00,29.88,10,4,19,0.00
2013-5-19,84.5,70.6,54.6,66.3,60.7,52.4,94,73,53,29.88,29.62,15,5,29,0.05
2013-5-20,83.8,76.5,66.2,64.7,60.6,56.9,88,60,43,29.66,29.57,28,8,31,0.07
2013-5-21,78.2,68.8,61.3,64.7,60.6,56.4,93,77,49,29.61,29.53,24,8,32,8.73
2013-5-22,67.8,60.8,54.2,64.7,58.6,52.8,96,92,84,29.69,29.54,9,3,21,0.50
2013-5-23,55.7,49.5,39.2,52.8,45.1,35.6,96,85,67,30.26,29.69,18,9,31,0.05
2013-5-24,62.7,47.9,35.7,42.7,35.8,32.2,92,65,37,30.40,30.26,10,4,18,0.00
2013-5-25,59.7,51.2,40.9,40.6,36.3,29.3,92,59,33,30.34,30.24,10,3,16,0.00
2013-5-26,65.8,53.2,38.1,49.8,40.9,34.0,89,65,38,30.25,30.10,13,5,23,0.03
2013-5-27,54.4,51.7,49.8,51.7,48.5,42.0,100,89,68,30.10,29.84,13,6,23,0.03
2013-5-28,72.3,59.9,50.3,67.8,58.3,49.2,99,95,81,29.84,29.62,16,3,16,1.13
2013-5-29,81.9,71.4,63.6,67.9,65.0,61.5,98,82,60,29.84,29.68,17,4,18,0.01
2013-5-30,84.3,75.7,63.3,69.9,66.4,60.9,94,74,58,29.81,29.65,36,11,40,0.23
2013-5-31,75.8,68.8,63.1,68.0,63.4,60.7,96,84,64,29.76,29.61,31,9,31,0.12
2013-6-1,76.3,69.7,62.8,67.0,63.9,58.3,94,83,66,29.62,29.53,24,7,24,0.08
2013-6-2,63.5,54.9,47.3,58.5,48.1,43.0,92,78,62,29.96,29.59,29,6,29,0.00
2013-6-3,70.9,57.6,43.1,49.9,43.5,38.2,97,64,35,30.04,29.94,14,2,14,0.00
2013-6-4,71.0,59.8,50.4,48.3,44.1,40.8,81,58,38,30.10,30.00,18,4,20,0.00
2013-6-5,64.5,57.3,51.8,52.7,48.9,45.5,92,74,58,30.07,29.90,18,4,18,0.06
2013-6-6,58.9,55.2,52.4,53.2,50.9,47.5,94,86,74,29.91,29.84,17,4,17,0.03
2013-6-7,71.0,60.8,51.0,51.5,45.4,38.6,88,61,31,29.92,29.84,22,5,22,0.00
2013-6-8,73.9,60.5,47.0,52.4,47.5,42.8,90,65,35,29.95,29.85,14,2,14,0.00
2013-6-9,79.3,66.9,53.8,60.8,55.7,49.7,88,69,46,29.95,29.74,27,5,27,0.00
2013-6-10,80.0,68.6,60.4,65.9,62.3,58.7,95,81,56,29.78,29.68,19,2,19,0.00
2013-6-11,84.8,72.9,59.3,66.1,62.3,58.0,97,72,47,29.84,29.71,16,4,16,0.00
2013-6-12,76.0,68.9,62.5,66.1,64.0,60.6,97,85,70,29.81,29.55,39,5,39,0.92
2013-6-13,75.9,65.8,55.3,61.5,56.3,50.9,97,73,51,30.00,29.58,27,7,27,0.01
2013-6-14,57.4,54.0,52.9,51.0,50.1,49.3,91,87,76,30.04,29.98,11,3,11,0.00
2013-6-15,79.2,66.8,54.9,70.6,61.3,49.3,95,83,72,30.00,29.73,10,3,17,0.38
2013-6-16,83.3,74.3,62.6,69.3,60.2,51.0,94,66,34,29.82,29.75,11,6,21,0.18
2013-6-17,85.4,70.2,57.5,65.6,57.7,52.4,91,68,37,29.89,29.75,14,5,26,0.00
2013-6-18,70.0,61.1,52.4,56.9,50.7,42.5,90,70,48,30.02,29.87,12,8,22,0.00
2013-6-19,75.7,64.6,47.6,49.5,46.2,42.2,85,54,35,30.09,30.01,18,4,18,0.00
2013-6-20,86.7,70.9,53.5,62.4,54.3,44.7,77,57,35,30.07,29.98,19,3,19,0.00
2013-6-21,75.0,69.7,62.9,68.2,64.3,55.9,96,83,65,30.04,29.81,19,4,35,13.51
2013-6-22,79.0,71.3,65.8,72.7,68.0,64.6,97,90,79,30.05,29.85,15,5,32,0.81
2013-6-23,86.6,75.1,64.3,74.6,68.1,62.8,96,80,62,29.94,29.78,13,6,21,0.00
2013-6-24,81.0,72.9,68.1,70.7,67.6,65.5,96,84,66,29.94,29.74,13,4,24,0.01
2013-6-25,81.6,71.6,65.2,73.7,68.2,64.2,97,90,73,29.85,29.71,18,3,30,1.08
2013-6-26,79.6,71.8,67.4,70.0,67.6,66.0,96,87,70,29.75,29.62,10,3,19,0.26
2013-6-27,85.5,74.4,66.0,72.5,68.4,64.8,97,83,52,29.69,29.59,13,4,21,0.11
2013-6-28,77.2,70.3,64.3,64.9,62.6,59.1,94,78,56,29.62,29.51,16,8,30,0.06
2013-6-29,73.0,66.3,63.0,62.7,59.9,55.1,96,81,55,29.73,29.52,19,9,32,0.02
2013-6-30,77.7,67.7,58.8,59.6,52.5,44.1,86,60,36,29.94,29.73,15,8,26,0.01
2013-7-1,74.1,63.4,57.5,54.1,50.3,45.8,78,63,42,30.02,29.94,12,6,22,0.00
2013-7-2,73.5,62.6,55.7,57.9,51.8,43.0,89,70,36,30.04,29.99,13,6,22,0.03
2013-7-3,67.5,63.7,59.6,63.8,59.7,53.1,94,87,76,30.00,29.94,8,3,14,0.01
2013-7-4,82.7,71.9,59.8,66.0,60.9,54.2,97,72,38,30.02,29.93,7,2,13,0.00
2013-7-5,84.5,74.2,62.5,66.3,62.4,59.3,92,69,46,29.99,29.91,11,4,19,0.00
2013-7-6,85.8,74.6,61.0,69.0,63.1,57.0,94,70,38,29.97,29.87,7,2,13,0.00
2013-7-7,87.8,77.5,68.0,72.4,69.2,65.8,95,77,53,29.90,29.83,9,3,14,0.00
2013-7-8,86.5,76.8,70.6,76.1,71.7,68.8,95,85,68,29.90,29.82,12,5,22,0.38
2013-7-9,82.8,74.1,67.7,76.1,71.2,66.8,97,91,75,29.90,29.74,13,4,24,0.61
2013-7-10,77.7,74.2,64.7,74.7,64.0,54.7,94,72,46,29.92,29.74,14,7,24,0.00
2013-7-11,81.2,69.4,56.9,61.9,55.9,51.1,91,65,40,30.04,29.92,9,3,20,0.00
2013-7-12,84.2,69.3,53.0,60.0,54.2,34.3,94,63,21,30.09,29.99,10,2,15,0.00
2013-7-13,82.5,71.3,56.4,63.1,58.8,54.0,96,68,40,30.09,30.02,9,4,18,0.00
2013-7-14,86.8,75.5,61.6,70.1,65.7,60.2,96,74,50,30.14,30.08,8,3,15,0.00
2013-7-15,90.4,79.0,66.5,75.3,71.0,65.0,96,78,56,30.18,30.12,10,2,18,0.00
2013-7-16,91.7,82.0,71.9,76.2,73.9,70.3,96,78,57,30.19,30.13,9,3,14,0.00
2013-7-17,93.0,83.2,74.3,75.6,73.4,68.9,94,74,53,30.19,30.06,11,4,19,0.00
2013-7-18,92.6,83.2,73.0,75.9,73.0,70.5,95,73,52,30.07,29.81,12,5,23,0.00
2013-7-19,91.0,83.2,75.1,74.6,72.0,66.8,86,70,55,29.81,29.63,14,8,27,0.00
2013-7-20,85.0,73.3,62.2,67.4,62.6,58.6,88,71,46,29.88,29.71,14,5,22,0.02
2013-7-21,81.9,68.0,60.1,68.9,62.0,56.8,96,82,57,29.89,29.78,16,4,23,1.61
2013-7-22,84.5,73.6,61.5,71.5,66.8,60.6,98,81,55,29.81,29.60,16,4,31,0.00
2013-7-23,74.7,68.3,57.4,64.3,58.5,52.7,90,72,50,29.92,29.61,15,7,25,0.03
2013-7-24,73.1,63.3,53.9,56.4,53.1,50.3,94,72,46,30.00,29.91,7,3,13,0.00
2013-7-25,78.0,66.5,51.7,62.0,57.1,49.7,95,74,52,30.02,29.89,11,4,18,0.00
2013-7-26,70.5,65.9,61.1,67.0,62.4,57.3,96,89,73,29.90,29.77,13,5,27,0.50
2013-7-27,61.1,56.7,52.8,57.4,50.4,46.0,95,80,61,29.85,29.79,14,8,22,0.01
2013-7-28,66.3,58.0,51.3,53.9,51.0,48.3,93,78,62,29.93,29.77,12,6,21,0.01
2013-7-29,74.8,63.0,53.9,59.9,55.2,51.6,92,77,54,30.11,29.93,7,3,13,0.00
2013-7-30,74.7,63.9,53.9,64.6,59.3,52.5,97,86,57,30.12,30.01,8,2,14,0.20
2013-7-31,75.7,65.9,61.5,67.6,63.7,58.8,98,93,73,30.01,29.86,14,2,29,0.72
2013-8-1,76.3,67.6,59.8,62.1,57.9,52.6,96,74,45,29.91,29.83,13,6,22,0.00
2013-8-2,79.3,69.3,60.3,67.1,61.1,56.3,97,77,50,29.87,29.76,10,4,15,0.42
2013-8-3,77.2,68.0,58.2,58.5,54.9,50.3,88,65,42,30.04,29.87,10,4,18,0.00
2013-8-4,74.6,64.4,54.8,60.7,56.2,51.8,95,76,53,30.14,30.04,8,2,14,0.00
2013-8-5,72.8,63.6,55.2,63.5,59.0,53.6,96,86,67,30.06,29.80,11,3,19,0.00
2013-8-6,81.5,71.9,61.9,71.3,66.6,60.6,97,84,65,29.80,29.71,9,3,15,0.00
2013-8-7,81.6,74.5,63.9,72.0,67.3,60.6,96,80,51,29.88,29.67,11,5,20,0.00
2013-8-8,76.8,67.6,59.8,63.1,56.0,49.0,97,70,40,29.98,29.88,8,3,15,0.01
2013-8-9,78.8,68.2,54.4,65.1,59.2,51.5,91,74,59,29.97,29.89,11,4,18,0.00
2013-8-10,76.3,67.0,55.9,63.3,57.2,52.3,95,73,45,30.06,29.97,7,2,13,0.00
2013-8-11,75.0,64.5,53.1,65.5,60.3,51.7,97,87,70,30.06,29.95,9,1,12,0.07
2013-8-12,79.5,70.0,62.9,69.1,64.8,58.6,98,85,57,29.96,29.80,12,2,22,0.37
2013-8-13,69.4,60.9,52.1,59.4,50.3,46.4,92,70,48,30.10,29.89,14,6,22,0.00
2013-8-14,73.0,60.7,50.0,54.0,50.3,47.2,95,71,43,30.16,30.06,9,3,17,0.00
2013-8-15,59.8,56.5,54.5,55.3,52.6,51.6,91,87,84,30.08,30.06,5,3,8,0.00
2013-8-16,80.4,67.0,54.9,60.4,55.9,53.2,95,71,42,30.12,30.04,7,2,15,0.00
2013-8-17,80.1,66.4,51.3,63.8,56.0,50.2,96,73,42,30.18,30.10,7,2,18,0.00
2013-8-18,80.5,67.0,51.2,62.9,56.8,49.8,96,73,49,30.15,30.02,7,2,13,0.01
2013-8-19,82.1,69.6,55.3,65.9,60.9,53.2,94,76,50,30.03,29.94,8,2,16,0.00
2013-8-20,84.6,73.4,61.4,67.9,64.8,59.9,96,76,53,30.01,29.92,11,4,20,0.00
2013-8-21,87.3,79.0,66.7,71.1,68.4,63.7,92,71,55,29.95,29.82,23,6,23,0.00
2013-8-22,77.5,70.7,63.3,70.4,67.2,60.7,95,89,77,30.04,29.89,36,4,36,0.93
2013-8-23,79.7,68.3,56.7,64.6,58.6,54.8,96,74,46,30.11,30.03,20,3,20,0.00
2013-8-24,84.1,69.5,53.0,66.2,60.6,51.9,97,75,50,30.18,30.08,14,3,14,0.01
2013-8-25,88.2,76.9,66.6,71.6,65.6,57.6,85,69,46,30.13,30.00,24,6,24,0.00
2013-8-26,89.5,79.0,71.6,76.0,70.1,64.8,84,75,62,30.03,29.86,21,6,21,0.00
2013-8-27,92.8,82.9,72.9,75.8,72.9,69.9,91,73,54,29.87,29.69,26,6,26,0.00
2013-8-28,85.0,76.5,66.9,73.7,70.0,64.5,94,81,64,29.95,29.72,18,4,18,0.00
2013-8-29,88.3,75.1,62.4,70.8,67.0,61.2,97,78,51,30.00,29.89,15,2,15,0.00
2013-8-30,94.1,74.2,66.5,77.2,68.8,63.6,94,85,49,29.89,29.66,48,5,48,0.32
2013-8-31,76.0,68.8,62.0,68.6,65.1,60.7,96,88,76,29.78,29.71,11,2,11,0.00
2013-9-1,83.2,70.1,60.8,72.3,65.6,59.9,98,87,67,29.74,29.62,24,3,24,0.02
2013-9-2,70.6,64.4,56.6,61.8,58.2,52.0,94,81,61,29.92,29.73,18,5,18,0.00
2013-9-3,75.3,61.8,50.8,57.0,53.3,48.5,94,76,47,30.02,29.92,13,2,13,0.00
2013-9-4,80.5,66.3,52.8,65.5,59.0,51.5,96,80,54,30.05,29.95,15,3,15,0.00
2013-9-5,71.1,64.1,51.5,63.1,54.1,47.4,96,72,47,30.20,30.05,20,4,21,0.00
2013-9-6,84.3,67.1,47.7,68.5,59.0,46.1,96,77,56,30.16,29.91,14,3,15,0.00
2013-9-7,80.6,72.7,65.9,70.8,66.7,62.5,94,82,62,29.91,29.80,22,4,22,0.00
2013-9-8,71.0,67.7,64.9,67.2,64.2,61.9,93,89,80,29.97,29.88,26,6,26,0.00
2013-9-9,90.5,77.8,66.4,77.5,71.1,64.1,94,81,62,29.90,29.69,17,4,17,0.00
2013-9-10,93.8,83.5,74.3,72.6,66.1,62.0,75,58,36,29.85,29.72,32,8,32,0.00
2013-9-11,82.0,75.2,68.2,68.6,66.4,64.2,91,75,59,29.99,29.83,15,4,17,0.00
2013-9-12,73.7,66.3,57.8,65.2,58.5,46.9,97,78,49,30.04,29.87,30,6,30,0.00
2013-9-13,65.2,55.2,47.0,48.0,44.0,39.8,89,68,42,30.14,30.04,26,6,26,0.00
2013-9-14,70.1,56.5,40.6,49.6,45.3,39.0,95,69,42,30.11,29.95,16,3,16,0.00
2013-9-15,58.5,55.7,52.7,56.8,52.4,45.9,99,89,64,30.15,29.91,25,4,25,0.44
2013-9-16,62.4,52.7,43.2,51.4,45.4,40.2,94,77,56,30.32,30.15,24,6,25,0.01
2013-9-17,68.5,55.2,40.9,55.3,49.2,39.6,97,81,57,30.28,30.05,18,4,18,0.01
2013-9-18,77.3,64.1,57.1,67.5,58.7,53.8,92,83,69,30.05,29.85,21,4,21,0.10
2013-9-19,80.7,71.8,67.0,73.8,68.4,64.4,96,89,71,29.85,29.65,18,6,28,25.13
2013-9-20,72.6,66.0,57.4,66.6,61.1,53.5,96,85,68,29.73,29.63,14,7,23,0.02
2013-9-21,57.5,54.3,49.1,54.2,48.2,44.2,92,80,65,29.89,29.73,13,7,22,0.00
2013-9-22,64.1,52.0,42.7,47.7,44.3,40.3,94,77,46,30.02,29.89,8,4,13,0.00
2013-9-23,64.6,52.1,40.3,51.9,46.3,39.3,100,82,57,30.07,29.99,9,3,15,0.01
2013-9-24,69.0,56.1,44.5,55.4,49.9,43.4,98,82,55,30.00,29.90,8,3,16,0.01
2013-9-25,68.3,55.8,44.6,58.6,49.8,43.5,98,82,57,29.93,29.89,9,3,18,0.01
2013-9-26,74.8,58.2,44.9,60.4,50.1,43.8,98,78,37,30.03,29.92,8,3,15,0.01
2013-9-27,79.7,61.6,45.5,57.0,52.2,44.3,98,75,41,30.10,29.99,12,3,19,0.01
2013-9-28,80.3,66.1,54.5,65.8,57.8,52.0,94,77,49,30.00,29.76,19,7,31,0.13
2013-9-29,69.7,57.8,47.0,53.6,47.7,40.6,96,73,35,29.99,29.87,7,2,13,0.01
2013-9-30,72.5,57.1,41.5,51.1,46.9,40.1,98,72,44,29.94,29.78,10,3,17,0.00
2013-10-1,81.2,67.1,52.0,64.4,59.3,47.6,94,78,52,29.88,29.76,18,8,29,0.00
2013-10-2,77.2,62.4,48.8,58.9,48.1,35.2,96,66,26,30.04,29.88,7,2,14,0.00
2013-10-3,74.3,65.7,55.3,68.0,62.9,51.8,98,91,76,29.92,29.76,11,2,18,0.11
2013-10-4,67.1,64.1,61.4,65.9,62.9,60.3,98,96,92,29.93,29.80,10,3,16,0.14
2013-10-5,73.8,65.5,61.8,71.8,64.6,61.2,100,97,87,29.88,29.65,9,2,17,0.90
2013-10-6,64.3,53.1,45.5,62.0,46.1,40.8,94,78,55,29.68,29.59,12,5,20,0.12
2013-10-7,65.8,52.4,45.0,47.9,45.0,42.6,96,78,44,30.02,29.65,14,6,22,0.02
2013-10-8,75.5,57.9,40.1,53.3,47.0,39.1,97,72,36,30.11,30.02,11,3,19,0.01
2013-10-9,72.4,58.0,47.4,52.1,47.3,40.6,94,71,34,30.16,30.07,9,2,15,0.00
2013-10-10,73.7,56.3,41.5,58.0,48.2,40.4,98,78,42,30.11,29.99,9,2,14,0.01
2013-10-11,74.7,60.9,48.4,59.2,53.4,47.3,98,78,50,30.00,29.88,14,4,23,0.01
2013-10-12,67.8,60.1,47.2,62.8,52.9,41.8,94,78,47,30.09,29.85,11,4,20,0.24
2013-10-13,60.1,49.3,40.0,44.5,40.0,36.8,91,72,43,30.35,30.09,12,4,19,0.00
2013-10-14,59.4,46.9,33.9,47.9,40.8,32.6,97,81,57,30.37,30.08,11,3,18,0.00
2013-10-15,61.1,53.8,46.1,59.3,50.5,42.7,96,88,80,30.08,29.67,12,5,21,0.27
2013-10-16,54.3,49.3,45.2,50.1,46.9,42.2,95,91,84,29.86,29.72,10,6,19,0.01
2013-10-17,49.9,46.1,41.5,46.1,44.1,39.3,97,93,83,29.85,29.75,9,3,14,0.09
2013-10-18,48.2,43.1,37.3,43.9,39.4,36.0,97,87,74,29.89,29.75,13,5,24,0.01
2013-10-19,51.0,43.2,37.3,39.1,37.4,33.3,95,81,53,29.86,29.68,14,6,23,0.00
2013-10-20,52.1,43.9,35.0,47.4,39.6,33.9,100,86,60,29.81,29.66,8,4,14,0.05
2013-10-21,48.6,40.6,31.3,44.6,32.1,24.1,89,72,58,29.88,29.69,15,8,24,0.00
2013-10-22,44.6,36.0,28.9,31.8,27.9,24.1,83,73,56,29.92,29.84,8,4,14,0.00
2013-10-23,42.4,36.0,28.3,30.3,26.8,22.5,92,70,47,29.96,29.87,12,7,20,0.00
2013-10-24,42.0,36.1,30.0,28.9,26.9,24.8,84,70,55,30.23,29.95,13,8,22,0.00
2013-10-25,50.4,40.0,26.4,31.0,27.5,23.4,89,63,43,30.32,29.87,19,10,33,0.00
2013-10-26,50.4,46.0,40.7,37.4,30.5,26.6,65,55,44,30.00,29.73,19,11,39,0.00
2013-10-27,53.5,41.6,30.2,32.9,30.2,26.9,89,66,41,29.99,29.86,16,6,24,0.00
2013-10-28,44.4,40.9,35.9,37.5,33.5,29.4,86,75,66,30.36,29.98,15,10,25,0.00
2013-10-29,52.6,42.8,35.1,43.1,38.1,29.6,96,83,69,30.34,30.08,9,5,15,0.00
2013-10-30,59.4,50.6,42.1,56.1,48.6,40.9,97,93,86,30.08,29.67,20,4,35,0.01
2013-10-31,62.0,57.7,46.0,60.6,56.5,44.1,98,96,92,29.68,29.14,17,6,35,0.51
2013-11-13,41.0,29.9,18.3,22.3,17.4,13.1,89,62,34,30.53,30.05,21,13,36,0.00
2013-11-14,45.9,38.9,32.1,30.6,26.0,19.4,69,60,51,30.05,29.85,18,11,27,0.00
2013-11-15,53.8,43.2,37.6,35.8,31.8,28.0,86,65,47,29.89,29.83,12,6,20,0.00
2013-11-16,58.9,49.4,36.6,55.9,47.0,33.4,96,92,85,29.85,29.45,21,10,38,0.26
2013-11-17,64.8,53.0,39.8,61.3,50.2,35.4,97,90,77,29.58,28.96,24,12,44,1.45
2013-11-18,39.9,34.2,26.6,35.7,27.0,21.6,85,75,64,30.20,29.59,20,12,33,0.00
2013-11-19,39.0,30.0,21.7,30.0,25.6,19.3,93,84,61,30.33,30.19,7,3,12,28.47
2013-11-20,43.2,36.9,31.6,35.2,30.3,26.5,94,78,54,30.23,30.05,13,6,24,0.09
2013-11-21,45.4,41.3,36.8,41.2,38.6,35.2,95,90,83,30.17,30.06,8,2,14,0.00
2013-11-22,39.4,32.2,24.6,37.3,26.9,17.9,94,81,68,30.42,30.16,15,9,25,0.02
2013-11-23,24.5,18.4,11.9,18.1,8.2,3.1,77,64,53,30.68,30.35,20,11,33,0.00
2013-11-24,25.5,17.6,8.2,9.9,6.1,3.4,84,62,41,30.67,30.26,18,9,28,0.00
2013-11-25,29.9,26.2,20.9,25.9,20.3,9.0,93,79,56,30.26,29.99,19,12,32,0.00
2013-11-26,31.3,25.8,13.5,27.1,18.7,5.2,88,75,56,30.14,29.97,18,8,27,0.00
2013-11-27,24.6,16.7,9.3,14.3,9.1,4.0,83,72,60,30.21,30.13,15,10,23,0.00
2013-12-12,17.2,8.2,-5.3,11.8,1.8,-9.5,82,75,66,30.49,30.16,15,8,24,0.00
2013-12-13,27.0,21.2,14.1,23.6,17.0,9.9,89,84,77,30.18,30.11,14,7,21,0.00
2013-12-14,27.4,24.8,19.5,24.9,22.4,17.3,94,90,86,30.12,29.88,11,8,22,0.00
2013-12-15,20.7,12.2,4.5,18.1,4.9,-4.7,91,72,60,30.10,29.85,17,9,26,0.00
2013-12-16,17.8,8.8,-2.4,11.8,2.8,-7.9,90,77,55,30.14,29.99,9,4,15,0.00
2013-12-17,32.6,24.6,14.3,25.2,19.2,11.8,93,81,64,30.01,29.87,16,9,26,0.03
2013-12-18,35.0,26.6,12.2,26.5,18.0,7.5,84,70,43,30.07,29.73,20,10,30,0.00
2013-12-19,32.9,30.4,25.6,31.1,27.2,23.1,100,88,78,29.91,29.74,15,6,22,0.00
2013-12-20,32.1,28.3,24.9,30.9,27.0,23.6,96,95,94,29.81,29.72,0,0,0,0.00
2013-12-21,32.4,28.0,24.4,31.6,27.1,23.3,97,96,93,29.84,29.61,0,0,0,0.00
2013-12-22,31.1,25.3,20.2,29.5,24.1,18.8,97,95,93,30.06,29.59,0,0,0,0.00
2013-12-23,20.3,10.8,-0.7,18.8,8.4,-4.3,94,90,84,30.38,30.06,0,0,0,0.00
2013-12-24,16.3,4.5,-4.8,12.8,1.4,-7.9,90,87,82,30.53,30.31,0,0,0,0.04
2013-12-25,23.0,20.0,12.6,20.9,17.7,10.1,93,91,88,30.31,30.03,0,0,0,0.00
2013-12-26,26.3,20.7,11.0,24.4,17.6,8.4,93,88,82,30.22,30.03,2,0,5,0.00
2013-12-27,38.2,27.9,15.0,31.5,24.4,13.3,96,87,76,30.23,29.96,15,3,23,0.06
2013-12-28,42.8,36.9,26.7,34.0,31.0,24.4,93,80,69,30.00,29.69,17,9,24,0.12
2013-12-29,39.8,22.2,0.4,31.2,16.6,-5.5,92,79,69,30.17,29.67,20,11,31,0.00
2013-12-30,0.2,-5.3,-9.1,-5.6,-11.1,-14.3,89,75,67,30.31,30.17,10,4,16,0.00